KE7YUP Weather Reports


Display with metric or nautical units.
time (UTC)temp
F
wind
direction
speed
MPH
gust
MPH
rain 1hr
in
rain 24hr
in
rain mn
in
humidity
%
barometer
mb
20190318181717 50 90 4.0 6.0 0.00 0.00 0.00 40 1023.5
20190318180710 49 135 5.0 6.0 0.00 0.00 0.00 40 1023.8
20190318175704 47 90 6.0 8.0 0.00 0.00 0.00 41 1023.7
20190318174751 48 90 6.0 9.0 0.00 0.00 0.00 44 1023.8
20190318173742 48 135 2.0 3.0 0.00 0.00 0.00 42 1024.2
20190318172733 48 135 2.0 3.0 0.00 0.00 0.00 42 1024.0
20190318171724 48 135 3.0 4.0 0.00 0.00 0.00 43 1023.9
20190318170716 47 135 1.0 3.0 0.00 0.00 0.00 41 1024.0
20190318165710 46 135 3.0 3.0 0.00 0.00 0.00 41 1023.8
20190318164704 45 90 4.0 6.0 0.00 0.00 0.00 40 1023.8
20190318163649 46 90 2.0 3.0 0.00 0.00 0.00 40 1024.0
20190318162641 44 90 3.0 4.0 0.00 0.00 0.00 46 1023.8
20190318161632 43 90 2.0 3.0 0.00 0.00 0.00 47 1023.8
20190318160623 42 90 2.0 3.0 0.00 0.00 0.00 50 1023.9
20190318155615 42 90 2.0 3.0 0.00 0.00 0.00 51 1024.0
20190318154609 41 90 1.0 2.0 0.00 0.00 0.00 50 1023.9
20190318153604 41 90 3.0 5.0 0.00 0.00 0.00 50 1024.2
20190318152550 41 90 2.0 3.0 0.00 0.00 0.00 50 1023.8
20190318151541 40 90 4.0 5.0 0.00 0.00 0.00 50 1024.0
20190318150532 39 45 3.0 3.0 0.00 0.00 0.00 51 1024.0
20190318145523 38 45 3.0 4.0 0.00 0.00 0.00 52 1024.2
20190318144544 38 0 4.0 5.0 0.00 0.00 0.00 55 1024.2
20190318143536 37 315 1.0 2.0 0.00 0.00 0.00 60 1023.7
20190318142528 35 315 3.0 4.0 0.00 0.00 0.00 63 1023.8
20190318141519 34 315 3.0 4.0 0.00 0.00 0.00 65 1023.8
20190318140512 33 0.0 0.0 0.00 0.00 0.00 66 1023.7
20190318135506 33 315 2.0 3.0 0.00 0.00 0.00 66 1023.5
20190318134453 32 0.0 0.0 0.00 0.00 0.00 65 1023.5
20190318133444 32 315 3.0 3.0 0.00 0.00 0.00 65 1023.2
20190318132435 33 315 3.0 4.0 0.00 0.00 0.00 64 1023.5
20190318131427 33 0 0.0 1.0 0.00 0.00 0.00 62 1023.6
20190318130418 34 0 0.0 1.0 0.00 0.00 0.00 60 1023.2
20190318125412 37 0.0 0.0 0.00 0.00 0.00 55 1023.2
20190318124406 38 0 3.0 4.0 0.00 0.00 0.00 53 1023.1
20190318123453 38 0 3.0 3.0 0.00 0.00 0.00 52 1023.2
20190318122445 38 0 1.0 2.0 0.00 0.00 0.00 53 1023.0
20190318121437 39 0 3.0 4.0 0.00 0.00 0.00 52 1023.0
20190318120428 38 0 3.0 4.0 0.00 0.00 0.00 53 1022.9
20190318115420 37 0 4.0 5.0 0.00 0.00 0.00 53 1023.1
20190318114413 37 0 4.0 5.0 0.00 0.00 0.00 54 1022.8
20190318113407 38 0 3.0 4.0 0.00 0.00 0.00 53 1023.0
20190318112355 39 0 4.0 5.0 0.00 0.00 0.00 53 1022.8
20190318111346 38 0 4.0 4.0 0.00 0.00 0.00 52 1022.9
20190318110338 38 0 4.0 5.0 0.00 0.00 0.00 51 1022.5
20190318105330 38 0 4.0 5.0 0.00 0.00 0.00 51 1022.6
20190318104321 40 0 4.0 5.0 0.00 0.00 0.00 50 1022.6
20190318103314 40 0 5.0 6.0 0.00 0.00 0.00 48 1022.5
20190318102308 40 45 5.0 6.0 0.00 0.00 0.00 48 1022.5
20190318101357 41 0 6.0 8.0 0.00 0.00 0.00 47 1022.5
20190318100348 41 0 6.0 8.0 0.00 0.00 0.00 47 1022.8
20190318095340 41 0 6.0 8.0 0.00 0.00 0.00 48 1022.8
20190318094332 41 0 5.0 6.0 0.00 0.00 0.00 48 1022.8
20190318093324 42 45 8.0 9.0 0.00 0.00 0.00 50 1023.0
20190318092317 41 0 6.0 8.0 0.00 0.00 0.00 51 1023.1
20190318091310 41 0 3.0 5.0 0.00 0.00 0.00 51 1023.0
20190318090304 41 0 4.0 5.0 0.00 0.00 0.00 51 1022.9
20190318085351 42 0 6.0 8.0 0.00 0.00 0.00 52 1023.2
20190318084343 41 45 8.0 9.0 0.00 0.00 0.00 51 1023.1
20190318083334 40 23 7.0 9.0 0.00 0.00 0.00 50 1023.1
20190318082326 41 0 5.0 6.0 0.00 0.00 0.00 52 1023.3
20190318081318 39 0 6.0 7.0 0.00 0.00 0.00 56 1023.1
20190318080312 37 0 4.0 5.0 0.00 0.00 0.00 58 1023.3
20190318075306 38 0 6.0 8.0 0.00 0.00 0.00 53 1023.1
20190318074353 41 0 6.0 6.0 0.00 0.00 0.00 52 1023.5
20190318073345 40 0 4.0 5.0 0.00 0.00 0.00 52 1023.1
20190318072337 39 0 5.0 6.0 0.00 0.00 0.00 54 1023.5
20190318071352 38 0 3.0 3.0 0.00 0.00 0.00 55 1023.7
20190318070344 38 0 5.0 6.0 0.00 0.00 0.00 57 1023.7
20190318065336 38 0.0 0.0 0.00 0.00 0.00 54 1024.0
20190318064328 40 0 3.0 5.0 0.00 0.00 0.00 53 1024.0
20190318063319 39 0 3.0 3.0 0.00 0.00 0.00 52 1023.8
20190318062313 41 0 1.0 1.0 0.00 0.00 0.00 51 1023.9
20190318061307 43 0 3.0 3.0 0.00 0.00 0.00 48 1024.0
20190318060255 42 0 3.0 4.0 0.00 0.00 0.00 46 1023.8
20190318055211 44 315 1.0 1.0 0.00 0.00 0.00 46 1023.6
20190318054206 44 0 5.0 6.0 0.00 0.00 0.00 45 1023.6
20190318053151 45 315 5.0 6.0 0.00 0.00 0.00 40 1023.7
20190318052142 45 315 6.0 8.0 0.00 0.00 0.00 45 1023.6
20190318051156 45 0 11.0 12.0 0.00 0.00 0.00 40 1023.3
20190318050148 45 0 8.0 9.0 0.00 0.00 0.00 40 1023.5
20190318045138 45 0 7.0 9.0 0.00 0.00 0.00 40 1023.6
20190318044129 46 0 10.0 14.0 0.00 0.00 0.00 39 1023.5
20190318043120 46 0 14.0 15.0 0.00 0.00 0.00 39 1023.3
20190318042113 46 0 21.0 25.0 0.00 0.00 0.00 38 1023.1
20190318041106 46 315 12.0 14.0 0.00 0.00 0.00 36 1023.1
20190318040052 46 315 15.0 19.0 0.00 0.00 0.00 34 1023.5
20190318035043 47 315 20.0 22.0 0.00 0.00 0.00 33 1023.3
20190318034034 47 0 16.0 19.0 0.00 0.00 0.00 33 1023.3
20190318033025 47 315 12.0 14.0 0.00 0.00 0.00 35 1023.1
20190318032016 47 315 12.0 13.0 0.00 0.00 0.00 33 1023.3
20190318031010 47 0 21.0 25.0 0.00 0.00 0.00 34 1023.2
20190318030004 47 315 13.0 15.0 0.00 0.00 0.00 34 1023.3
20190318025050 47 270 10.0 12.0 0.00 0.00 0.00 32 1023.6
20190318024041 48 270 12.0 15.0 0.00 0.00 0.00 33 1023.2
20190318023032 48 0 12.0 16.0 0.00 0.00 0.00 34 1023.5
20190318022023 48 0 11.0 13.0 0.00 0.00 0.00 40 1023.2
20190318021014 49 315 11.0 12.0 0.00 0.00 0.00 39 1023.2
20190318020009 49 0 15.0 16.0 0.00 0.00 0.00 37 1023.3
20190318015057 48 0 12.0 13.0 0.00 0.00 0.00 37 1023.2
20190318014048 48 315 6.0 8.0 0.00 0.00 0.00 35 1023.3
20190318013039 49 0 12.0 15.0 0.00 0.00 0.00 35 1023.0
20190318012054 49 315 6.0 6.0 0.00 0.00 0.00 36 1023.2
20190318011045 50 0 10.0 12.0 0.00 0.00 0.00 35 1023.3
20190318010036 50 0 14.0 15.0 0.00 0.00 0.00 34 1023.2
20190318005027 51 0 11.0 13.0 0.00 0.00 0.00 34 1023.5
20190318004018 51 315 9.0 11.0 0.00 0.00 0.00 34 1023.6
20190318003011 51 0 12.0 14.0 0.00 0.00 0.00 34 1023.3
20190318002005 52 315 6.0 9.0 0.00 0.00 0.00 35 1023.3
20190318001052 52 0 8.0 9.0 0.00 0.00 0.00 35 1023.5
20190318000043 52 0 12.0 17.0 0.00 0.00 0.00 34 1023.3
20190317235034 52 0 15.0 17.0 0.00 0.00 0.00 34 1023.7
20190317234025 52 0 11.0 12.0 0.00 0.00 0.00 33 1023.5
20190317233016 53 0 9.0 12.0 0.00 0.00 0.00 33 1023.6
20190317232010 53 0 8.0 9.0 0.00 0.00 0.00 32 1023.8
20190317231004 53 45 11.0 14.0 0.00 0.00 0.00 32 1023.9
20190317225950 53 45 9.0 12.0 0.00 0.00 0.00 31 1023.9
20190317224941 53 0 10.0 12.0 0.00 0.00 0.00 30 1023.7
20190317223932 55 45 3.0 5.0 0.00 0.00 0.00 15 1023.9
20190317222923 55 45 6.0 7.0 0.00 0.00 0.00 15 1024.3
20190317221914 54 45 6.0 9.0 0.00 0.00 0.00 20 1023.9
20190317220909 55 45 8.0 9.0 0.00 0.00 0.00 15 1024.3
20190317220303 53 45 11.0 12.0 0.00 0.00 0.00 20 1024.3
20190317215152 54 45 9.0 11.0 0.00 0.00 0.00 20 1024.4
20190317214142 53 45 10.0 12.0 0.00 0.00 0.00 19 1024.6
20190317213133 53 90 8.0 9.0 0.00 0.00 0.00 20 1024.7
20190317212154 54 90 6.0 6.0 0.00 0.00 0.00 15 1024.5
20190317211145 55 90 6.0 9.0 0.00 0.00 0.00 20 1024.6
20190317210136 53 90 4.0 6.0 0.00 0.00 0.00 20 1024.6
20190317205157 53 90 2.0 3.0 0.00 0.00 0.00 23 1025.2
20190317204148 53 90 6.0 7.0 0.00 0.00 0.00 26 1025.1
20190317203139 52 135 9.0 12.0 0.00 0.00 0.00 26 1025.0
20190317202131 51 90 6.0 8.0 0.00 0.00 0.00 30 1025.3
20190317201122 51 90 3.0 3.0 0.00 0.00 0.00 30 1025.3
20190317200114 50 90 6.0 8.0 0.00 0.00 0.00 31 1025.8
20190317195108 51 135 6.0 8.0 0.00 0.00 0.00 31 1025.6
20190317194102 53 90 3.0 6.0 0.00 0.00 0.00 31 1025.8
20190317193055 51 90 2.0 3.0 0.00 0.00 0.00 31 1025.8
20190317192045 50 135 5.0 9.0 0.00 0.00 0.00 31 1026.0
20190317191037 48 45 6.0 6.0 0.00 0.00 0.00 33 1026.1
20190317190058 48 90 5.0 8.0 0.00 0.00 0.00 32 1026.0
20190317185049 50 135 3.0 6.0 0.00 0.00 0.00 34 1026.3
20190317184040 49 90 1.0 2.0 0.00 0.00 0.00 34 1026.1
20190317183031 48 135 4.0 6.0 0.00 0.00 0.00 35 1026.4